When you browse on this site, cookies collect data to enhance your experience and personalize the content and advertising you see.
Visit our Privacy Policy to learn more. By continuing to use the site, you agree to this use of cookies and data.
  • En España
  • Lista de países
  • Para 7 días
  • Temperatura del agua
  • El tiempo en el mapa
  • Informadores
  • user-avatar
    Iniciar sesión

    Tiempo cada hora Sinegubovo 1

    Hoy, 29 Marzo, Domingo

    Tiempo Temperatura Precipitaciones Viento Presión Humedad
    00:00 +5°C° 0 mm 3 mps 740 mmHg 84%
    01:00 +6°C° 0 mm 2 mps 739 mmHg 88%
    02:00 +6°C° 0 mm 2 mps 739 mmHg 86%
    03:00 +5°C° 0 mm 2 mps 738 mmHg 88%
    04:00 +5°C° 0 mm 2 mps 738 mmHg 90%
    05:00 +5°C° 0 mm 2 mps 737 mmHg 92%
    06:00 +5°C° 0 mm 3 mps 737 mmHg 88%
    07:00 +7°C° 0 mm 3 mps 737 mmHg 84%
    08:00 +8°C° 0 mm 3 mps 737 mmHg 79%
    09:00 +9°C° 0 mm 3 mps 737 mmHg 71%
    10:00 +10°C° 0 mm 3 mps 736 mmHg 62%
    11:00 +11°C° 0 mm 3 mps 736 mmHg 54%
    12:00 +12°C° 0 mm 4 mps 736 mmHg 50%
    13:00 +12°C° 0 mm 4 mps 735 mmHg 46%
    14:00 +13°C° 0 mm 5 mps 735 mmHg 42%
    15:00 +12°C° 0 mm 4 mps 734 mmHg 43%
    16:00 +11°C° 0 mm 4 mps 734 mmHg 45%
    17:00 +11°C° 0 mm 3 mps 733 mmHg 46%
    18:00 +10°C° 0 mm 3 mps 733 mmHg 49%
    19:00 +9°C° 0 mm 3 mps 733 mmHg 53%
    20:00 +8°C° 0 mm 3 mps 733 mmHg 56%
    21:00 +8°C° 0 mm 3 mps 732 mmHg 58%
    22:00 +8°C° 0 mm 3 mps 732 mmHg 61%
    23:00 +7°C° 0 mm 3 mps 731 mmHg 63%

    Mañana, 30 Marzo, Lunes

    Tiempo Temperatura Precipitaciones Viento Presión Humedad
    00:00 +7°C° 0 mm 2 mps 731 mmHg 64%
    01:00 +7°C° 0 mm 2 mps 731 mmHg 66%
    02:00 +6°C° 0 mm 2 mps 730 mmHg 67%
    03:00 +6°C° 0 mm 2 mps 730 mmHg 68%
    04:00 +6°C° 0 mm 2 mps 730 mmHg 69%
    05:00 +5°C° 0 mm 2 mps 729 mmHg 70%
    06:00 +6°C° 0 mm 2 mps 729 mmHg 67%
    07:00 +8°C° 0 mm 1 mps 730 mmHg 63%
    08:00 +9°C° 0 mm 1 mps 730 mmHg 60%
    09:00 +10°C° 0 mm 1 mps 730 mmHg 57%
    10:00 +11°C° 0 mm 1 mps 730 mmHg 54%
    11:00 +12°C° 0 mm 2 mps 730 mmHg 50%
    12:00 +10°C° 0 mm 3 mps 730 mmHg 53%
    13:00 +10°C° 0 mm 4 mps 730 mmHg 56%
    14:00 +9°C° 0 mm 5 mps 730 mmHg 59%
    15:00 +7°C° 0.1 mm 6 mps 730 mmHg 66%
    16:00 +3°C° 0.1 mm 6 mps 730 mmHg 74%
    17:00 +1°C° 0.1 mm 6 mps 731 mmHg 82%
    18:00 -1°C° 0.3 mm 6 mps 731 mmHg 85%
    19:00 -2°C° 0.3 mm 6 mps 731 mmHg 89%
    20:00 -3°C° 0.3 mm 6 mps 732 mmHg 92%
    21:00 -3°C° 0.3 mm 6 mps 732 mmHg 92%
    22:00 -4°C° 0.3 mm 6 mps 732 mmHg 91%
    23:00 -4°C° 0.3 mm 6 mps 732 mmHg 91%

    Pasado mañana, 31 Marzo, Martes

    Tiempo Temperatura Precipitaciones Viento Presión Humedad
    00:00 -5°C° 0.4 mm 6 mps 732 mmHg 91%
    01:00 -5°C° 0.4 mm 6 mps 733 mmHg 92%
    02:00 -6°C° 0.4 mm 6 mps 733 mmHg 92%
    03:00 -6°C° 0.2 mm 6 mps 733 mmHg 91%
    04:00 -8°C° 0.2 mm 7 mps 734 mmHg 91%
    05:00 -8°C° 0.2 mm 7 mps 734 mmHg 91%
    06:00 -8°C° 0.2 mm 7 mps 735 mmHg 89%
    07:00 -8°C° 0.2 mm 7 mps 735 mmHg 88%
    08:00 -8°C° 0.2 mm 8 mps 736 mmHg 86%
    09:00 -7°C° 0.1 mm 8 mps 736 mmHg 82%
    10:00 -7°C° 0.1 mm 8 mps 737 mmHg 78%
    11:00 -6°C° 0.1 mm 7 mps 738 mmHg 74%
    12:00 -6°C° 0.1 mm 7 mps 738 mmHg 69%
    13:00 -6°C° 0.1 mm 7 mps 739 mmHg 63%
    14:00 -4°C° 0.1 mm 7 mps 739 mmHg 58%
    15:00 -5°C° 0 mm 6 mps 739 mmHg 58%
    16:00 -5°C° 0 mm 6 mps 740 mmHg 59%
    17:00 -5°C° 0 mm 5 mps 740 mmHg 59%
    18:00 -5°C° 0 mm 4 mps 740 mmHg 64%
    19:00 -7°C° 0 mm 4 mps 741 mmHg 68%
    20:00 -7°C° 0 mm 3 mps 741 mmHg 72%
    21:00 -7°C° 0 mm 3 mps 741 mmHg 73%
    22:00 -7°C° 0 mm 3 mps 741 mmHg 74%
    23:00 -7°C° 0 mm 3 mps 741 mmHg 74%

    1 Abril, Miércoles

    Tiempo Temperatura Precipitaciones Viento Presión Humedad
    00:00 -7°C° 0 mm 3 mps 741 mmHg 75%
    01:00 -7°C° 0 mm 3 mps 741 mmHg 76%
    02:00 -7°C° 0 mm 3 mps 741 mmHg 76%
    03:00 -7°C° 0 mm 3 mps 741 mmHg 76%
    04:00 -7°C° 0 mm 3 mps 741 mmHg 75%
    05:00 -7°C° 0 mm 3 mps 740 mmHg 74%
    06:00 -7°C° 0 mm 4 mps 740 mmHg 68%
    07:00 -6°C° 0 mm 5 mps 740 mmHg 62%
    08:00 -5°C° 0 mm 6 mps 740 mmHg 56%
    09:00 -4°C° 0 mm 7 mps 739 mmHg 55%
    10:00 -3°C° 0 mm 7 mps 739 mmHg 54%
    11:00 -1°C° 0 mm 7 mps 738 mmHg 53%
    12:00 -1°C° 0 mm 7 mps 738 mmHg 51%
    13:00 0°C° 0 mm 7 mps 737 mmHg 49%
    14:00 0°C° 0 mm 8 mps 737 mmHg 47%
    15:00 0°C° 0 mm 7 mps 736 mmHg 50%
    16:00 -1°C° 0 mm 6 mps 736 mmHg 54%
    17:00 -1°C° 0 mm 6 mps 735 mmHg 57%
    18:00 -1°C° 0 mm 6 mps 735 mmHg 59%
    19:00 -2°C° 0 mm 6 mps 735 mmHg 62%
    20:00 -2°C° 0 mm 6 mps 735 mmHg 64%
    21:00 -3°C° 0 mm 6 mps 735 mmHg 65%
    22:00 -3°C° 0 mm 6 mps 735 mmHg 67%
    23:00 -3°C° 0 mm 6 mps 735 mmHg 68%

    2 Abril, Jueves

    Tiempo Temperatura Precipitaciones Viento Presión Humedad
    00:00 -3°C° 0 mm 6 mps 735 mmHg 69%
    01:00 -3°C° 0 mm 6 mps 734 mmHg 70%
    02:00 -3°C° 0 mm 6 mps 734 mmHg 71%
    03:00 -3°C° 0 mm 6 mps 734 mmHg 75%
    04:00 -3°C° 0 mm 6 mps 734 mmHg 79%
    05:00 -4°C° 0 mm 6 mps 734 mmHg 82%
    06:00 -3°C° 0 mm 6 mps 734 mmHg 81%
    07:00 -3°C° 0 mm 6 mps 734 mmHg 80%
    08:00 -2°C° 0 mm 6 mps 735 mmHg 79%
    09:00 -1°C° 0 mm 7 mps 735 mmHg 75%
    10:00 0°C° 0 mm 7 mps 735 mmHg 70%
    11:00 +2°C° 0 mm 7 mps 735 mmHg 65%
    12:00 +2°C° 0 mm 7 mps 735 mmHg 64%
    13:00 +2°C° 0 mm 7 mps 735 mmHg 62%
    14:00 +3°C° 0 mm 7 mps 735 mmHg 61%
    15:00 +3°C° 0 mm 6 mps 734 mmHg 61%
    16:00 +3°C° 0 mm 5 mps 734 mmHg 61%
    17:00 +2°C° 0 mm 5 mps 734 mmHg 61%
    18:00 +3°C° 0 mm 4 mps 734 mmHg 63%
    19:00 +1°C° 0 mm 4 mps 734 mmHg 65%
    20:00 +1°C° 0 mm 4 mps 735 mmHg 67%
    21:00 +1°C° 0 mm 5 mps 734 mmHg 66%
    22:00 0°C° 0 mm 5 mps 734 mmHg 66%
    23:00 0°C° 0 mm 5 mps 734 mmHg 65%

    3 Abril, Viernes

    Tiempo Temperatura Precipitaciones Viento Presión Humedad
    00:00 0°C° 0 mm 5 mps 734 mmHg 67%
    01:00 0°C° 0 mm 5 mps 734 mmHg 68%
    02:00 -1°C° 0 mm 5 mps 734 mmHg 70%
    03:00 -1°C° 0 mm 5 mps 734 mmHg 71%
    04:00 -1°C° 0 mm 5 mps 734 mmHg 72%
    05:00 -1°C° 0 mm 5 mps 734 mmHg 74%
    06:00 -1°C° 0 mm 6 mps 734 mmHg 71%
    07:00 +1°C° 0 mm 6 mps 734 mmHg 69%
    08:00 +1°C° 0 mm 6 mps 734 mmHg 67%
    09:00 +3°C° 0 mm 7 mps 734 mmHg 63%
    10:00 +4°C° 0 mm 7 mps 734 mmHg 58%
    11:00 +5°C° 0 mm 8 mps 734 mmHg 54%
    12:00 +6°C° 0 mm 8 mps 734 mmHg 53%
    13:00 +6°C° 0 mm 8 mps 734 mmHg 53%
    14:00 +7°C° 0 mm 8 mps 734 mmHg 52%
    15:00 +6°C° 0 mm 7 mps 734 mmHg 53%
    16:00 +6°C° 0 mm 7 mps 734 mmHg 54%
    17:00 +7°C° 0 mm 6 mps 734 mmHg 55%
    18:00 +5°C° 0 mm 6 mps 734 mmHg 57%
    19:00 +4°C° 0 mm 6 mps 734 mmHg 58%
    20:00 +4°C° 0 mm 6 mps 734 mmHg 59%
    21:00 +4°C° 0 mm 6 mps 734 mmHg 59%
    22:00 +3°C° 0 mm 6 mps 734 mmHg 59%
    23:00 +3°C° 0 mm 7 mps 734 mmHg 59%
    Mostrar más